| time (UTC) | temp F | wind direction | speed MPH | gust MPH | rain 1hr in | rain 24hr in | rain mn in | humidity % | barometer mb |
| 20260904010033 | 54 | 18 | 4.0 | 9.0 | 0.00 | 0.21 | 0.04 | 87 | 1011.7 |
| 20260904004530 | 54 | 24 | 4.0 | 11.0 | 0.00 | 0.23 | 0.04 | 86 | 1011.7 |
| 20260904003033 | 55 | 341 | 3.0 | 8.0 | 0.00 | 0.24 | 0.04 | 86 | 1011.6 |
| 20260904000032 | 55 | 49 | 3.0 | 6.0 | 0.03 | 0.28 | 0.04 | 83 | 1011.6 |
| 20260903234644 | 55 | 53 | 4.0 | 7.0 | 0.03 | 0.28 | 0.04 | 82 | 1011.6 |
| 20260903233032 | 56 | 26 | 3.0 | 8.0 | 0.03 | 0.30 | 0.02 | 77 | 1011.9 |
| 20260903231531 | 58 | 305 | 3.0 | 10.0 | 0.01 | 0.28 | 0.01 | 72 | 1011.9 |
| 20260903230032 | 59 | 325 | 3.0 | 10.0 | 0.00 | 0.28 | 0.01 | 69 | 1011.8 |
| 20260903223030 | 63 | 294 | 4.0 | 11.0 | 0.00 | 0.28 | 0.01 | 66 | 1011.8 |
| 20260903221530 | 63 | 311 | 4.0 | 11.0 | 0.00 | 0.28 | 0.01 | 67 | 1011.7 |
| 20260903220033 | 63 | 342 | 3.0 | 6.0 | 0.00 | 0.30 | 0.01 | 68 | 1011.7 |
| 20260903211532 | 62 | 272 | 3.0 | 7.0 | 0.00 | 0.32 | 0.01 | 70 | 1011.8 |
| 20260903210031 | 62 | 288 | 3.0 | 7.0 | 0.00 | 0.33 | 0.01 | 70 | 1012.0 |
| 20260903204609 | 62 | 304 | 4.0 | 9.0 | 0.00 | 0.34 | 0.01 | 71 | 1012.0 |
| 20260903203030 | 62 | 291 | 4.0 | 8.0 | 0.00 | 0.35 | 0.01 | 70 | 1012.0 |
| 20260903201531 | 63 | 289 | 4.0 | 7.0 | 0.00 | 0.35 | 0.01 | 73 | 1012.2 |
| 20260903194529 | 61 | 288 | 4.0 | 7.0 | 0.00 | 0.36 | 0.01 | 74 | 1012.4 |
| 20260903193030 | 61 | 4 | 4.0 | 9.0 | 0.00 | 0.36 | 0.01 | 76 | 1012.5 |
| 20260903191532 | 59 | 12 | 4.0 | 8.0 | 0.00 | 0.36 | 0.01 | 79 | 1012.7 |
| 20260903184532 | 59 | 332 | 4.0 | 8.0 | 0.00 | 0.36 | 0.01 | 80 | 1013.0 |
| 20260903183029 | 61 | 307 | 4.0 | 9.0 | 0.00 | 0.36 | 0.01 | 78 | 1012.9 |
| 20260903180028 | 58 | 32 | 4.0 | 9.0 | 0.00 | 0.36 | 0.01 | 85 | 1012.9 |
| 20260903174531 | 57 | 48 | 3.0 | 7.0 | 0.00 | 0.36 | 0.01 | 89 | 1012.9 |
| 20260903173031 | 56 | 30 | 1.0 | 5.0 | 0.00 | 0.36 | 0.01 | 93 | 1013.0 |
| 20260903171606 | 53 | 60 | 1.0 | 4.0 | 0.00 | 0.36 | 0.01 | 95 | 1013.1 |
| 20260903170030 | 51 | 30 | 1.0 | 5.0 | 0.00 | 0.36 | 0.01 | 96 | 1013.0 |
| 20260903163146 | 50 | 344 | 1.0 | 4.0 | 0.00 | 0.36 | 0.01 | 97 | 1013.0 |
| 20260903161602 | 49 | 67 | 0.0 | 3.0 | 0.00 | 0.36 | 0.01 | 97 | 1013.1 |
| 20260903160040 | 48 | 67 | 1.0 | 4.0 | 0.00 | 0.36 | 0.01 | 97 | 1013.2 |
| 20260903154529 | 48 | 270 | 1.0 | 5.0 | 0.00 | 0.36 | 0.01 | 97 | 1013.1 |
| 20260903153031 | 47 | 269 | 1.0 | 4.0 | 0.00 | 0.36 | 0.01 | 97 | 1013.0 |
| 20260903151606 | 46 | 39 | 1.0 | 6.0 | 0.00 | 0.36 | 0.01 | 97 | 1013.1 |
| 20260903144529 | 45 | 271 | 1.0 | 5.0 | 0.00 | 0.36 | 0.01 | 97 | 1012.8 |
| 20260903143102 | 44 | 294 | 1.0 | 3.0 | 0.00 | 0.36 | 0.01 | 97 | 1012.8 |
| 20260903141532 | 44 | 274 | 1.0 | 4.0 | 0.00 | 0.36 | 0.01 | 97 | 1012.7 |
| 20260903134531 | 43 | 276 | 0.0 | 3.0 | 0.00 | 0.36 | 0.01 | 97 | 1012.4 |
| 20260903133031 | 42 | 195 | 1.0 | 5.0 | 0.00 | 0.36 | 0.01 | 97 | 1012.3 |
| 20260903131528 | 42 | 169 | 0.0 | 3.0 | 0.00 | 0.36 | 0.01 | 97 | 1012.2 |
| 20260903123031 | 41 | 145 | 0.0 | 3.0 | 0.00 | 0.36 | 0.01 | 96 | 1012.3 |
| 20260903121530 | 41 | 321 | 0.0 | 2.0 | 0.00 | 0.36 | 0.01 | 96 | 1012.2 |
| 20260903120031 | 42 | 131 | 1.0 | 4.0 | 0.00 | 0.36 | 0.01 | 96 | 1012.2 |
| 20260903113031 | 42 | 167 | 1.0 | 4.0 | 0.00 | 0.36 | 0.01 | 96 | 1012.3 |
| 20260903111530 | 41 | 179 | 2.0 | 6.0 | 0.00 | 0.36 | 0.01 | 96 | 1012.1 |
| 20260903110030 | 41 | 215 | 2.0 | 6.0 | 0.00 | 0.36 | 0.01 | 96 | 1012.0 |
| 20260903104647 | 41 | 165 | 1.0 | 4.0 | 0.00 | 0.36 | 0.01 | 96 | 1012.0 |
| 20260903101530 | 43 | 159 | 3.0 | 6.0 | 0.00 | 0.36 | 0.01 | 96 | 1011.7 |
| 20260903100031 | 43 | 151 | 2.0 | 6.0 | 0.01 | 0.36 | 0.01 | 96 | 1011.8 |
| 20260903093031 | 44 | 282 | 0.0 | 1.0 | 0.01 | 0.36 | 0.01 | 96 | 1011.9 |
| 20260903091530 | 44 | 141 | 2.0 | 5.0 | 0.01 | 0.36 | 0.00 | 96 | 1011.8 |
| 20260903090030 | 44 | 195 | 0.0 | 3.0 | 0.00 | 0.35 | 0.00 | 96 | 1012.0 |
| 20260903084529 | 45 | 171 | 1.0 | 4.0 | 0.00 | 0.35 | 0.00 | 96 | 1012.0 |
| 20260903083108 | 45 | 149 | 2.0 | 6.0 | 0.00 | 0.35 | 0.00 | 96 | 1011.9 |
| 20260903081607 | 45 | 154 | 3.0 | 5.0 | 0.00 | 0.35 | 0.00 | 96 | 1011.9 |
| 20260903080029 | 45 | 147 | 3.0 | 5.0 | 0.00 | 0.35 | 0.00 | 96 | 1011.8 |
| 20260903073030 | 46 | 158 | 1.0 | 4.0 | 0.00 | 0.35 | 0.00 | 95 | 1011.4 |
| 20260903071530 | 46 | 254 | 0.0 | 4.0 | 0.00 | 0.35 | 0.00 | 95 | 1011.5 |
| 20260903070029 | 46 | 249 | 1.0 | 4.0 | 0.00 | 0.35 | 0.00 | 95 | 1011.4 |
| 20260903064530 | 46 | 225 | 1.0 | 5.0 | 0.00 | 0.35 | 0.35 | 95 | 1011.4 |
| 20260903063028 | 46 | 28 | 0.0 | 3.0 | 0.00 | 0.35 | 0.35 | 95 | 1011.5 |
| 20260903060105 | 46 | 289 | 0.0 | 4.0 | 0.00 | 0.35 | 0.35 | 95 | 1011.6 |
| 20260903054532 | 47 | 134 | 1.0 | 3.0 | 0.00 | 0.35 | 0.35 | 94 | 1011.5 |
| 20260903053030 | 47 | 19 | 0.0 | 3.0 | 0.00 | 0.35 | 0.35 | 94 | 1011.5 |
| 20260903051531 | 48 | 294 | 2.0 | 6.0 | 0.00 | 0.35 | 0.35 | 94 | 1011.3 |
| 20260903050030 | 48 | 332 | 3.0 | 6.0 | 0.00 | 0.35 | 0.35 | 94 | 1011.3 |
| 20260903043056 | 49 | 246 | 0.0 | 4.0 | 0.00 | 0.35 | 0.35 | 94 | 1011.1 |
| 20260903041530 | 50 | 239 | 1.0 | 6.0 | 0.00 | 0.35 | 0.35 | 94 | 1011.0 |
| 20260903040030 | 50 | 226 | 3.0 | 8.0 | 0.00 | 0.35 | 0.35 | 94 | 1010.7 |
| 20260903034530 | 50 | 201 | 3.0 | 9.0 | 0.00 | 0.35 | 0.35 | 94 | 1010.7 |
| 20260903031531 | 52 | 233 | 1.0 | 5.0 | 0.05 | 0.35 | 0.35 | 94 | 1010.6 |
| 20260903030032 | 53 | 187 | 3.0 | 5.0 | 0.08 | 0.35 | 0.35 | 94 | 1010.5 |
| 20260903023030 | 55 | 118 | 1.0 | 4.0 | 0.14 | 0.34 | 0.30 | 94 | 1010.4 |
| 20260903021606 | 55 | 356 | 0.0 | 4.0 | 0.11 | 0.30 | 0.27 | 94 | 1010.3 |
| 20260903020031 | 56 | 315 | 2.0 | 7.0 | 0.09 | 0.27 | 0.20 | 94 | 1009.9 |
| 20260903014530 | 56 | 290 | 3.0 | 7.0 | 0.04 | 0.20 | 0.20 | 94 | 1009.4 |
| 20260903013033 | 55 | 216 | 0.0 | 3.0 | 0.05 | 0.20 | 0.19 | 93 | 1009.5 |
| 20260903011530 | 56 | 218 | 1.0 | 3.0 | 0.05 | 0.19 | 0.18 | 93 | 1009.7 |